Retour au catalogue

FENGYUN 1C DEB

ActifSSO
NORAD 31482·DEBRIS·🇨🇳 China

Lancé May 10, 1999 depuis Taiyuan Satellite Launch Center

Loading…

Prochains Passages (prochaines 24 heures)

TLE

FraisSource: Space-Track

Époque: Sep 14, 2026, 05:41 UTC

1 31482U 99025BVW 26257.23701597  .00001045  00000-0  35389-3 0  9990
2 31482  98.3881 258.7514 0088383 178.3716 242.3964 14.36626830 10776

Suivez FENGYUN 1C DEB en temps réel avec AllMySat

Download on the App Store